When you browse on this site, cookies collect data to enhance your experience and personalize the content and advertising you see.
Visit our Privacy Policy to learn more. By continuing to use the site, you agree to this use of cookies and data.
  • In Schweiz
  • Länderverzeichnis
  • Für 7 Tage
  • Wassertemperatur
  • Satellitenkarten
  • Wetterkarte
  • Widgets
  • user-avatar
    Anmelden

    Stündliche Wetter Verhniy Tabyn

    Heute, 24 Januar, Donnerstag

    Zeit Temperatur Niederschläge Wind Luftdruck Luftfeuchtigkeit
    00:00 -25°C° 0 mm 3 m/S 759 mmHg 97%
    01:00 -25°C° 0 mm 3 m/S 760 mmHg 97%
    02:00 -25°C° 0 mm 3 m/S 760 mmHg 97%
    03:00 -26°C° 0 mm 3 m/S 760 mmHg 97%
    04:00 -26°C° 0 mm 3 m/S 761 mmHg 98%
    05:00 -26°C° 0 mm 3 m/S 761 mmHg 98%
    06:00 -27°C° 0 mm 3 m/S 761 mmHg 98%
    07:00 -26°C° 0 mm 2 m/S 761 mmHg 98%
    08:00 -26°C° 0 mm 2 m/S 761 mmHg 98%
    09:00 -25°C° 0 mm 2 m/S 762 mmHg 97%
    10:00 -25°C° 0 mm 2 m/S 762 mmHg 97%
    11:00 -24°C° 0 mm 3 m/S 762 mmHg 95%
    12:00 -23°C° 0 mm 3 m/S 762 mmHg 94%
    13:00 -21°C° 0 mm 3 m/S 762 mmHg 92%
    14:00 -21°C° 0 mm 3 m/S 761 mmHg 92%
    15:00 -21°C° 0 mm 3 m/S 761 mmHg 91%
    16:00 -20°C° 0 mm 4 m/S 761 mmHg 90%
    17:00 -20°C° 0 mm 4 m/S 760 mmHg 90%
    18:00 -20°C° 0 mm 4 m/S 760 mmHg 89%
    19:00 -21°C° 0 mm 5 m/S 759 mmHg 88%
    20:00 -21°C° 0.3 mm 5 m/S 758 mmHg 90%
    21:00 -21°C° 0.3 mm 6 m/S 757 mmHg 91%
    22:00 -20°C° 0.3 mm 7 m/S 756 mmHg 93%
    23:00 -19°C° 0.4 mm 7 m/S 755 mmHg 92%

    Morgen, 25 Januar, Freitag

    Zeit Temperatur Niederschläge Wind Luftdruck Luftfeuchtigkeit
    00:00 -19°C° 0.4 mm 7 m/S 754 mmHg 92%
    01:00 -18°C° 0.4 mm 7 m/S 753 mmHg 91%
    02:00 -17°C° 0.3 mm 6 m/S 753 mmHg 92%
    03:00 -17°C° 0.3 mm 5 m/S 752 mmHg 92%
    04:00 -15°C° 0.3 mm 4 m/S 752 mmHg 93%
    05:00 -15°C° 0.2 mm 4 m/S 751 mmHg 93%
    06:00 -14°C° 0.2 mm 3 m/S 751 mmHg 94%
    07:00 -14°C° 0.2 mm 3 m/S 750 mmHg 94%
    08:00 -15°C° 0.1 mm 3 m/S 750 mmHg 94%
    09:00 -15°C° 0.1 mm 3 m/S 751 mmHg 94%
    10:00 -16°C° 0.1 mm 3 m/S 751 mmHg 94%
    11:00 -17°C° 0 mm 4 m/S 751 mmHg 94%
    12:00 -18°C° 0 mm 4 m/S 752 mmHg 94%
    13:00 -18°C° 0 mm 4 m/S 752 mmHg 93%
    14:00 -19°C° 0 mm 4 m/S 753 mmHg 93%
    15:00 -19°C° 0 mm 4 m/S 753 mmHg 94%
    16:00 -20°C° 0 mm 4 m/S 754 mmHg 94%
    17:00 -22°C° 0 mm 4 m/S 755 mmHg 94%
    18:00 -23°C° 0 mm 4 m/S 755 mmHg 95%
    19:00 -24°C° 0 mm 5 m/S 756 mmHg 95%
    20:00 -24°C° 0 mm 4 m/S 757 mmHg 95%
    21:00 -25°C° 0 mm 4 m/S 757 mmHg 96%
    22:00 -26°C° 0 mm 4 m/S 758 mmHg 96%
    23:00 -27°C° 0 mm 4 m/S 758 mmHg 97%

    übermorgen, 26 Januar, Samstag

    Zeit Temperatur Niederschläge Wind Luftdruck Luftfeuchtigkeit
    00:00 -29°C° 0 mm 4 m/S 759 mmHg 97%
    01:00 -27°C° 0 mm 3 m/S 760 mmHg 98%
    02:00 -29°C° 0 mm 3 m/S 760 mmHg 98%
    03:00 -29°C° 0 mm 3 m/S 761 mmHg 98%
    04:00 -29°C° 0 mm 3 m/S 761 mmHg 98%
    05:00 -29°C° 0 mm 3 m/S 761 mmHg 98%
    06:00 -30°C° 0 mm 3 m/S 762 mmHg 98%
    07:00 -30°C° 0 mm 3 m/S 762 mmHg 98%
    08:00 -28°C° 0 mm 2 m/S 763 mmHg 98%
    09:00 -28°C° 0 mm 2 m/S 763 mmHg 98%
    10:00 -27°C° 0 mm 2 m/S 764 mmHg 98%
    11:00 -26°C° 0 mm 2 m/S 764 mmHg 97%
    12:00 -22°C° 0 mm 1 m/S 764 mmHg 96%
    13:00 -21°C° 0 mm 1 m/S 764 mmHg 95%
    14:00 -21°C° 0 mm 1 m/S 764 mmHg 94%
    15:00 -22°C° 0 mm 1 m/S 765 mmHg 94%
    16:00 -22°C° 0 mm 0 m/S 765 mmHg 93%
    17:00 -23°C° 0 mm 1 m/S 765 mmHg 92%
    18:00 -23°C° 0 mm 1 m/S 765 mmHg 91%
    19:00 -23°C° 0 mm 1 m/S 765 mmHg 90%
    20:00 -23°C° 0 mm 1 m/S 765 mmHg 88%
    21:00 -23°C° 0 mm 1 m/S 765 mmHg 87%
    22:00 -23°C° 0 mm 1 m/S 765 mmHg 86%
    23:00 -26°C° 0 mm 2 m/S 765 mmHg 85%

    27 Januar, Sonntag

    Zeit Temperatur Niederschläge Wind Luftdruck Luftfeuchtigkeit
    00:00 -26°C° 0 mm 2 m/S 765 mmHg 85%
    01:00 -26°C° 0 mm 2 m/S 765 mmHg 84%
    02:00 -25°C° 0 mm 2 m/S 765 mmHg 84%
    03:00 -24°C° 0 mm 2 m/S 765 mmHg 85%
    04:00 -24°C° 0 mm 3 m/S 765 mmHg 85%
    05:00 -24°C° 0 mm 3 m/S 764 mmHg 84%
    06:00 -24°C° 0 mm 4 m/S 764 mmHg 83%
    07:00 -23°C° 0 mm 4 m/S 764 mmHg 83%
    08:00 -24°C° 0 mm 5 m/S 764 mmHg 82%
    09:00 -22°C° 0 mm 5 m/S 763 mmHg 82%
    10:00 -22°C° 0 mm 5 m/S 763 mmHg 82%
    11:00 -22°C° 0 mm 5 m/S 763 mmHg 80%
    12:00 -21°C° 0 mm 5 m/S 762 mmHg 79%
    13:00 -20°C° 0 mm 5 m/S 762 mmHg 78%
    14:00 -20°C° 0 mm 5 m/S 761 mmHg 78%
    15:00 -20°C° 0 mm 5 m/S 761 mmHg 79%
    16:00 -20°C° 0 mm 5 m/S 760 mmHg 79%
    17:00 -21°C° 0 mm 6 m/S 760 mmHg 80%
    18:00 -21°C° 0 mm 6 m/S 760 mmHg 80%
    19:00 -21°C° 0 mm 6 m/S 759 mmHg 81%
    20:00 -21°C° 0 mm 6 m/S 759 mmHg 81%
    21:00 -20°C° 0 mm 6 m/S 759 mmHg 80%
    22:00 -18°C° 0 mm 6 m/S 758 mmHg 80%
    23:00 -17°C° 0 mm 6 m/S 758 mmHg 80%

    28 Januar, Montag

    Zeit Temperatur Niederschläge Wind Luftdruck Luftfeuchtigkeit
    00:00 -17°C° 0 mm 6 m/S 758 mmHg 80%
    01:00 -17°C° 0 mm 5 m/S 758 mmHg 80%
    02:00 -17°C° 0 mm 5 m/S 757 mmHg 80%
    03:00 -18°C° 0 mm 5 m/S 757 mmHg 79%
    04:00 -18°C° 0 mm 5 m/S 757 mmHg 79%
    05:00 -19°C° 0 mm 5 m/S 756 mmHg 79%
    06:00 -19°C° 0 mm 5 m/S 756 mmHg 79%
    07:00 -19°C° 0 mm 5 m/S 756 mmHg 79%
    08:00 -18°C° 0 mm 5 m/S 756 mmHg 80%
    09:00 -18°C° 0 mm 5 m/S 756 mmHg 80%
    10:00 -18°C° 0 mm 5 m/S 756 mmHg 80%
    11:00 -17°C° 0 mm 5 m/S 755 mmHg 80%
    12:00 -15°C° 0 mm 5 m/S 755 mmHg 80%
    13:00 -13°C° 0 mm 5 m/S 755 mmHg 80%
    14:00 -13°C° 0 mm 5 m/S 755 mmHg 81%
    15:00 -14°C° 0 mm 5 m/S 754 mmHg 82%
    16:00 -14°C° 0 mm 4 m/S 754 mmHg 82%
    17:00 -14°C° 0 mm 4 m/S 754 mmHg 82%
    18:00 -15°C° 0 mm 4 m/S 754 mmHg 82%
    19:00 -16°C° 0 mm 4 m/S 754 mmHg 82%
    20:00 -16°C° 0 mm 4 m/S 753 mmHg 82%
    21:00 -16°C° 0 mm 4 m/S 753 mmHg 82%
    22:00 -16°C° 0 mm 3 m/S 753 mmHg 82%
    23:00 -16°C° 0 mm 3 m/S 753 mmHg 82%

    29 Januar, Dienstag

    Zeit Temperatur Niederschläge Wind Luftdruck Luftfeuchtigkeit
    00:00 -16°C° 0 mm 3 m/S 753 mmHg 82%
    01:00 -17°C° 0 mm 3 m/S 753 mmHg 83%
    02:00 -16°C° 0 mm 3 m/S 753 mmHg 83%
    03:00 -17°C° 0 mm 4 m/S 753 mmHg 84%
    04:00 -16°C° 0 mm 4 m/S 753 mmHg 85%
    05:00 -16°C° 0 mm 4 m/S 753 mmHg 85%
    06:00 -15°C° 0 mm 3 m/S 752 mmHg 86%
    07:00 -15°C° 0 mm 3 m/S 752 mmHg 86%
    08:00 -15°C° 0 mm 3 m/S 752 mmHg 86%
    09:00 -15°C° 0 mm 3 m/S 752 mmHg 86%
    10:00 -14°C° 0 mm 3 m/S 752 mmHg 87%
    11:00 -14°C° 0 mm 3 m/S 752 mmHg 87%
    12:00 -13°C° 0 mm 3 m/S 752 mmHg 87%
    13:00 -12°C° 0 mm 3 m/S 752 mmHg 87%
    14:00 -12°C° 0 mm 3 m/S 752 mmHg 88%
    15:00 -12°C° 0 mm 3 m/S 753 mmHg 89%
    16:00 -10°C° 0 mm 2 m/S 753 mmHg 90%
    17:00 -12°C° 0 mm 2 m/S 753 mmHg 91%
    18:00 -12°C° 0 mm 2 m/S 753 mmHg 92%
    19:00 -13°C° 0 mm 2 m/S 753 mmHg 92%
    20:00 -13°C° 0 mm 2 m/S 754 mmHg 93%
    21:00 -13°C° 0 mm 2 m/S 754 mmHg 94%
    22:00 -13°C° 0 mm 2 m/S 754 mmHg 94%
    23:00 -11°C° 0 mm 1 m/S 754 mmHg 94%
    Mehr zeigen